• In Lithuania
  • List of Countries
  • For 7 days
  • Water Temperature
  • Satellite Maps
  • Weather Map
  • Weather Widgets
  • user-avatar
    Login

    Hourly Weather Minsk

    Today, 24 October, Tuesday

    Time Temperature Precipitation Wind Pressure Humidity
    00:00 -1°C° 0 mm 3 mps 748 mmHg 79%
    01:00 -2°C° 0 mm 3 mps 748 mmHg 79%
    02:00 -2°C° 0 mm 3 mps 749 mmHg 79%
    03:00 -2°C° 0 mm 3 mps 749 mmHg 79%
    04:00 -2°C° 0 mm 3 mps 749 mmHg 80%
    05:00 -2°C° 0 mm 3 mps 749 mmHg 80%
    06:00 -2°C° 0 mm 3 mps 750 mmHg 79%
    07:00 -2°C° 0 mm 3 mps 750 mmHg 78%
    08:00 -3°C° 0 mm 4 mps 751 mmHg 77%
    09:00 -2°C° 0 mm 4 mps 751 mmHg 71%
    10:00 -1°C° 0 mm 4 mps 752 mmHg 66%
    11:00 +1°C° 0 mm 4 mps 752 mmHg 60%
    12:00 +1°C° 0 mm 4 mps 752 mmHg 58%
    13:00 +3°C° 0 mm 3 mps 752 mmHg 57%
    14:00 +3°C° 0 mm 3 mps 752 mmHg 55%
    15:00 +2°C° 0 mm 3 mps 752 mmHg 60%
    16:00 +1°C° 0 mm 3 mps 752 mmHg 65%
    17:00 +1°C° 0 mm 2 mps 752 mmHg 70%
    18:00 -1°C° 0 mm 2 mps 753 mmHg 71%
    19:00 -2°C° 0 mm 2 mps 753 mmHg 73%
    20:00 -2°C° 0 mm 2 mps 754 mmHg 75%
    21:00 -3°C° 0 mm 2 mps 754 mmHg 76%
    22:00 -3°C° 0 mm 2 mps 754 mmHg 76%
    23:00 -3°C° 0 mm 2 mps 754 mmHg 77%

    Tomorrow, 25 October, Wednesday

    Time Temperature Precipitation Wind Pressure Humidity
    00:00 -3°C° 0 mm 2 mps 754 mmHg 78%
    01:00 -3°C° 0 mm 2 mps 754 mmHg 78%
    02:00 -3°C° 0 mm 2 mps 754 mmHg 79%
    03:00 -3°C° 0 mm 2 mps 754 mmHg 79%
    04:00 -4°C° 0 mm 2 mps 754 mmHg 79%
    05:00 -4°C° 0 mm 2 mps 754 mmHg 79%
    06:00 -3°C° 0 mm 2 mps 754 mmHg 77%
    07:00 -4°C° 0 mm 3 mps 754 mmHg 76%
    08:00 -4°C° 0 mm 3 mps 754 mmHg 74%
    09:00 -2°C° 0 mm 3 mps 754 mmHg 68%
    10:00 -1°C° 0 mm 4 mps 754 mmHg 62%
    11:00 0°C° 0 mm 4 mps 754 mmHg 56%
    12:00 +1°C° 0 mm 4 mps 753 mmHg 54%
    13:00 +1°C° 0 mm 4 mps 752 mmHg 53%
    14:00 +2°C° 0 mm 5 mps 752 mmHg 51%
    15:00 +1°C° 0 mm 4 mps 751 mmHg 55%
    16:00 0°C° 0 mm 4 mps 751 mmHg 58%
    17:00 -1°C° 0 mm 4 mps 750 mmHg 62%
    18:00 -1°C° 0 mm 5 mps 750 mmHg 61%
    19:00 0°C° 0 mm 5 mps 749 mmHg 61%
    20:00 -1°C° 0 mm 6 mps 749 mmHg 60%
    21:00 -1°C° 1 mm 6 mps 748 mmHg 67%
    22:00 -2°C° 1 mm 7 mps 747 mmHg 73%
    23:00 -2°C° 1 mm 7 mps 747 mmHg 80%

    Day after tomorrow, 26 October, Thursday

    Time Temperature Precipitation Wind Pressure Humidity
    00:00 -2°C° 0.9 mm 7 mps 746 mmHg 83%
    01:00 -2°C° 0.9 mm 7 mps 746 mmHg 85%
    02:00 -2°C° 0.9 mm 6 mps 745 mmHg 88%
    03:00 -2°C° 0.1 mm 6 mps 745 mmHg 90%
    04:00 -1°C° 0.1 mm 5 mps 744 mmHg 92%
    05:00 0°C° 0.1 mm 4 mps 744 mmHg 93%
    06:00 0°C° 0 mm 4 mps 743 mmHg 95%
    07:00 +1°C° 0 mm 3 mps 743 mmHg 96%
    08:00 +2°C° 0 mm 3 mps 743 mmHg 98%
    09:00 +2°C° 0.1 mm 3 mps 743 mmHg 98%
    10:00 +3°C° 0.1 mm 3 mps 743 mmHg 98%
    11:00 +4°C° 0.1 mm 3 mps 743 mmHg 98%
    12:00 +5°C° 0.1 mm 4 mps 742 mmHg 97%
    13:00 +5°C° 0.1 mm 4 mps 742 mmHg 97%
    14:00 +6°C° 0.1 mm 4 mps 742 mmHg 96%
    15:00 +6°C° 0.1 mm 4 mps 742 mmHg 96%
    16:00 +6°C° 0.1 mm 4 mps 742 mmHg 96%
    17:00 +6°C° 0.1 mm 4 mps 741 mmHg 95%
    18:00 +6°C° 0.1 mm 4 mps 741 mmHg 95%
    19:00 +6°C° 0.1 mm 4 mps 741 mmHg 95%
    20:00 +6°C° 0.1 mm 4 mps 741 mmHg 95%
    21:00 +6°C° 0.1 mm 4 mps 740 mmHg 95%
    22:00 +6°C° 0.1 mm 4 mps 740 mmHg 95%
    23:00 +6°C° 0.1 mm 4 mps 740 mmHg 95%

    27 October, Friday

    Time Temperature Precipitation Wind Pressure Humidity
    00:00 +6°C° 0.1 mm 4 mps 740 mmHg 95%
    01:00 +6°C° 0.1 mm 4 mps 739 mmHg 95%
    02:00 +6°C° 0.1 mm 4 mps 739 mmHg 95%
    03:00 +6°C° 0.1 mm 4 mps 738 mmHg 95%
    04:00 +6°C° 0.1 mm 4 mps 738 mmHg 95%
    05:00 +6°C° 0.1 mm 4 mps 737 mmHg 95%
    06:00 +6°C° 0 mm 4 mps 737 mmHg 94%
    07:00 +6°C° 0 mm 4 mps 737 mmHg 94%
    08:00 +6°C° 0 mm 4 mps 736 mmHg 93%
    09:00 +6°C° 0 mm 4 mps 736 mmHg 92%
    10:00 +6°C° 0 mm 4 mps 736 mmHg 91%
    11:00 +6°C° 0 mm 4 mps 736 mmHg 90%
    12:00 +7°C° 0.2 mm 4 mps 735 mmHg 89%
    13:00 +8°C° 0.2 mm 3 mps 735 mmHg 88%
    14:00 +8°C° 0.2 mm 3 mps 735 mmHg 86%
    15:00 +8°C° 0.4 mm 3 mps 734 mmHg 88%
    16:00 +7°C° 0.4 mm 3 mps 734 mmHg 90%
    17:00 +7°C° 0.4 mm 2 mps 733 mmHg 92%
    18:00 +6°C° 0.4 mm 2 mps 733 mmHg 93%
    19:00 +6°C° 0.4 mm 2 mps 733 mmHg 94%
    20:00 +6°C° 0.4 mm 2 mps 732 mmHg 95%
    21:00 +5°C° 0.2 mm 3 mps 732 mmHg 95%
    22:00 +4°C° 0.2 mm 3 mps 732 mmHg 95%
    23:00 +4°C° 0.2 mm 3 mps 732 mmHg 96%

    28 October, Saturday

    Time Temperature Precipitation Wind Pressure Humidity
    00:00 +5°C° 0.1 mm 2 mps 732 mmHg 96%
    01:00 +5°C° 0.1 mm 2 mps 731 mmHg 96%
    02:00 +5°C° 0.1 mm 2 mps 731 mmHg 96%
    03:00 +5°C° 0 mm 2 mps 731 mmHg 96%
    04:00 +5°C° 0 mm 2 mps 731 mmHg 96%
    05:00 +5°C° 0 mm 2 mps 731 mmHg 96%
    06:00 +5°C° 0.1 mm 2 mps 731 mmHg 96%
    07:00 +5°C° 0.1 mm 2 mps 731 mmHg 95%
    08:00 +5°C° 0.1 mm 2 mps 731 mmHg 95%
    09:00 +5°C° 0.3 mm 3 mps 731 mmHg 92%
    10:00 +5°C° 0.3 mm 3 mps 731 mmHg 89%
    11:00 +5°C° 0.3 mm 3 mps 731 mmHg 86%
    12:00 +5°C° 0.2 mm 3 mps 731 mmHg 84%
    13:00 +5°C° 0.2 mm 3 mps 731 mmHg 81%
    14:00 +5°C° 0.2 mm 4 mps 731 mmHg 78%
    15:00 +4°C° 0.1 mm 3 mps 731 mmHg 79%
    16:00 +4°C° 0.1 mm 3 mps 731 mmHg 80%
    17:00 +3°C° 0.1 mm 3 mps 731 mmHg 81%
    18:00 +3°C° 0 mm 3 mps 731 mmHg 84%
    19:00 +3°C° 0 mm 2 mps 731 mmHg 87%
    20:00 +3°C° 0 mm 2 mps 731 mmHg 89%
    21:00 +2°C° 0 mm 2 mps 731 mmHg 90%
    22:00 +2°C° 0 mm 2 mps 731 mmHg 91%
    23:00 +1°C° 0 mm 2 mps 731 mmHg 92%

    29 October, Sunday

    Time Temperature Precipitation Wind Pressure Humidity
    00:00 +1°C° 0 mm 2 mps 731 mmHg 92%
    01:00 +1°C° 0 mm 2 mps 731 mmHg 92%
    02:00 +2°C° 0 mm 1 mps 731 mmHg 92%
    03:00 +2°C° 0 mm 1 mps 731 mmHg 93%
    04:00 +2°C° 0 mm 1 mps 731 mmHg 93%
    05:00 +2°C° 0 mm 1 mps 731 mmHg 94%
    06:00 +2°C° 0 mm 1 mps 731 mmHg 93%
    07:00 +2°C° 0 mm 1 mps 731 mmHg 93%
    08:00 +3°C° 0 mm 1 mps 731 mmHg 92%
    09:00 +4°C° 0 mm 1 mps 731 mmHg 89%
    10:00 +5°C° 0 mm 1 mps 732 mmHg 86%
    11:00 +6°C° 0 mm 1 mps 732 mmHg 83%
    12:00 +6°C° 0 mm 1 mps 732 mmHg 81%
    13:00 +6°C° 0 mm 1 mps 732 mmHg 80%
    14:00 +7°C° 0 mm 1 mps 732 mmHg 78%
    15:00 +6°C° 0 mm 1 mps 732 mmHg 80%
    16:00 +6°C° 0 mm 1 mps 732 mmHg 82%
    17:00 +5°C° 0 mm 1 mps 732 mmHg 84%
    18:00 +5°C° 0 mm 1 mps 732 mmHg 85%
    19:00 +4°C° 0 mm 1 mps 732 mmHg 87%
    20:00 +4°C° 0 mm 1 mps 732 mmHg 88%
    21:00 +3°C° 0 mm 1 mps 732 mmHg 89%
    22:00 +3°C° 0 mm 1 mps 732 mmHg 90%
    23:00 +2°C° 0 mm 2 mps 732 mmHg 91%

    30 October, Monday

    Time Temperature Precipitation Wind Pressure Humidity
    00:00 +2°C° 0 mm 2 mps 732 mmHg 92%
    01:00 +1°C° 0 mm 2 mps 732 mmHg 92%
    02:00 +1°C° 0 mm 2 mps 731 mmHg 93%
    03:00 0°C° 0 mm 3 mps 731 mmHg 94%
    04:00 0°C° 0 mm 3 mps 731 mmHg 94%
    05:00 +1°C° 0 mm 3 mps 730 mmHg 95%
    06:00 +1°C° 0 mm 3 mps 730 mmHg 94%
    07:00 +1°C° 0 mm 3 mps 730 mmHg 94%
    08:00 +1°C° 0 mm 4 mps 730 mmHg 93%
    09:00 +1°C° 0 mm 4 mps 729 mmHg 88%
    10:00 +2°C° 0 mm 5 mps 729 mmHg 83%
    11:00 +3°C° 0 mm 6 mps 728 mmHg 77%
    12:00 +3°C° 0.2 mm 6 mps 727 mmHg 77%
    13:00 +3°C° 0.2 mm 6 mps 727 mmHg 77%
    14:00 +3°C° 0.2 mm 7 mps 726 mmHg 77%
    15:00 +3°C° 0.6 mm 6 mps 726 mmHg 81%
    16:00 +3°C° 0.6 mm 6 mps 725 mmHg 84%
    17:00 +3°C° 0.6 mm 6 mps 725 mmHg 88%
    18:00 +3°C° 0.2 mm 5 mps 725 mmHg 89%
    19:00 +3°C° 0.2 mm 5 mps 725 mmHg 90%
    20:00 +4°C° 0.2 mm 4 mps 725 mmHg 91%
    21:00 +3°C° 0 mm 5 mps 724 mmHg 90%
    22:00 +3°C° 0 mm 5 mps 724 mmHg 90%
    23:00 +2°C° 0 mm 5 mps 724 mmHg 89%
    Show more